sat.trackr.live / text

‹ back to catalog

STARLINK-35816

NORAD 66499 · 2025-263Q

PAYLOAD ACTIVE UNKNOWN

§ Identity

Operator
Country
US
Launch date
2025-11-15
Launch site
AFETR
Launch vehicle
Mass (kg)
RCS (m²)

Purposes: comms

External: N2YO · Heavens-Above · Gunter

§ Orbital elements

Epoch: 2026-09-20T11:11:23.239680Z

Period
94.27 min
Inclination
43.0014°
Eccentricity
0.0001656
Mean motion
15.27585335 rev/d
Perigee alt
481.9 km
Apogee alt
484.2 km
Semi-major
6,861.2 km
B*
2.9513e-4
RAAN
331.0336°
Arg perigee
273.1226°
Mean anomaly
86.9436°
Rev number
4,868

§ Raw data

STARLINK-358161 66499U 25263Q   26263.46624120  .00007869  00000+0  29513-3 0  99982 66499  43.0014 331.0336 0001656 273.1226  86.9436 15.27585335 48684

JSON: /api/v1/satellites/66499 · /tle

For live sub-satellite position, see the globe view (requires WebGL).

§ Visibility from observer

Set your observer location to see the next 7 days of passes ≥ 10°. The values pass through the URL so the page stays shareable.

No JS? Fill the form by hand. The geolocation button needs JavaScript.